Regional Weather Roundup
Issued by NWS State College, PA

Home | Current Version | Previous Version | Graphics & Text | Print | Product List | Glossary Off
Versions: 1 2 3 4 5 6 7 8 9 10 11 12 13 14 15 16 17 18 19 20 21 22 23 24 25 26 27 28 29 30 31 32 33 34 35 36 37 38 39 40 41 42 43 44 45 46 47 48 49 50

000
ASUS41 KCTP 221403
RWRCTP

REGIONAL WEATHER ROUNDUP
NATIONAL WEATHER SERVICE STATE COLLEGE PA
1000 AM EDT FRI JUL 22 2016

Note: "fair" indicates few or no clouds below 12,000 feet with no
significant weather and/or obstructions to visibility.

* = STATION THAT DOES NOT REPORT PRECIPITATION /E.G. RAIN...SNOW...ETC/
    THUNDER OR FOG.

PAZ002>004-007>009-013>016-020>023-029>032-221500-
WESTERN PENNSYLVANIA

CITY           SKY/WX    TMP DP  RH WIND       PRES   REMARKS
ERIE           CLOUDY    78  70  76 SW12      29.96S
MEADVILLE      CLOUDY    67  64  90 SW9G17    30.03S
FRANKLIN*      CLOUDY    68  64  88 N6        30.06F
NEW CASTLE     LGT RAIN  71  68  90 N12       30.10R
BEAVER COUNTY  PTSUNNY   75  66  73 CALM      30.06R
BUTLER*        CLOUDY    72  64  78 E9        30.11R
PITTSBURGH INT PTSUNNY   76  65  68 S5        30.06S
PITTSBURGH     CLOUDY    74  64  71 S6        30.07S
INDIANA*       PTSUNNY   73  64  73 NW3       30.15R
LATROBE        PTSUNNY   75  64  69 SW9       30.09S
WASHINGTON CO* PTSUNNY   79  66  65 SW7       30.08S
$$

PAZ004>006-010>012-017>019-024>028-033>037-041-042-045-046-049>053-221500-
CENTRAL PENNSYLVANIA

CITY           SKY/WX    TMP DP  RH WIND       PRES   REMARKS
BRADFORD       PTSUNNY   69  65  86 SW9       30.05R
DUBOIS         LGT RAIN  68  65  90 SW18      30.05F FOG
CLEARFIELD     LGT RAIN  70  66  87 SW8       30.06F
JOHNSTOWN      PTSUNNY   72  60  66 W8        30.13R
ALTOONA        CLOUDY    77  63  61 SW8       30.08S
STATE COLLEGE  MOSUNNY   79  66  65 W18       30.05S
WILLIAMSPORT   CLOUDY    76  62  62 CALM      29.96F
SELINSGROVE    MOSUNNY   81  69  67 VRB3      29.98F
FT INDIANTOWN  MOSUNNY   80  65  61 SW6       29.99F
CAPITAL CITY   PTSUNNY   83  67  58 W7        30.00F
HARRISBURG     MOSUNNY   80  68  66 VRB5      29.99F
YORK           CLOUDY    81  67  62 W7        30.02S
$$

PAZ038>040-043-044-047-048-054-055-060>062-067>071-221500-
EASTERN PENNSYLVANIA

CITY           SKY/WX    TMP DP  RH WIND       PRES   REMARKS
SCRANTON       MOSUNNY   82  64  54 SW13      29.98F
MOUNT POCONO   MOSUNNY   77  64  64 W14G28    30.03F
ALLENTOWN      MOSUNNY   83  67  58 SW10      29.98F
QUAKERTOWN*    CLOUDY    81  68  65 SW7       30.00F
READING        PTSUNNY   83  66  56 SW5       29.98F
LANCASTER      MOSUNNY   79  69  71 NW7       30.00F
COATESVILLE    CLOUDY    77  70  78 CALM      30.03S
POTTSTOWN      MOSUNNY   83  68  60 VRB5      30.00F
BLUE BELL      CLOUDY    81  68  65 SW8       29.99S
DOYLESTOWN     MOSUNNY   80  66  62 VRB7      29.98F
WILLOW GROVE   NOT AVBL
NORTH PHILA    MOSUNNY   85  71  63 W9        30.00F
PHILADELPHIA   PTSUNNY   83  71  67 SW10      29.99F
$$




USA.gov is the U.S. government's official web portal to all federal, state and local government web resources and services.